星链-31437 (STARLINK-31437 )

导读

STARLINK-31437是美国SpaceX星链互联网卫星项目的一员,于2024年6月8日发射升空,归入低轨卫星星座组网。星链星座旨在为全球提供覆盖广泛的高速卫星互联网服务,该卫星入轨后延续项目目标,补充完善星座通信能力,提升全球偏远、基础设施不足区域的网络覆盖水平。

基本信息
目录编号:
60057
目录名称:
STARLINK-31437
国际标识:
2024-112V
轨道中心:
EARTH
卫星名称:
星链-31437
卫星全名:
星链-31437 (STARLINK-31437 )
卫星状态:
在轨 (已飞行825 天)
发射日期:
2024-06-08 UTC
国别 :
美国 (US)
星等 :
--
该卫星已列入 空间交会检测服务 Space Conjunction Data Service (SCDS) ,当前飞行风险评估等级: 高风险
轨道信息
数据来源 国际轨道数据
星历时间: 2026-09-11T18:16:01+0800
10小时前
查看轨道信息
半长轴: 6840.879km
偏心率: 0.0001194
轨道倾角: 53.159°
近地点辐角 84.846°
升交点赤经 293.869°
平近点角 275.268°
近地点: 461.925km
远地点: 463.559km
周期: 93.849分钟
每日圈数: 15.34387
详细信息
固有亮度:
5
最大亮度:
1.5
卫星平台:
Starlink v2.0 mini
覆盖范围:
全球
运营商:
太空探索技术公司
运营商所在国:
美国
制造商(研发单位):
太空探索技术公司
制造商所在国:
美国
使用方式:
暂无
卫星简介
星链(Starlink)计划是由太空探索技术公司(SpaceX)提出的一个巨型低轨卫星互联网星座项目,计划在2019年至2024年间在太空搭建由约1.2万颗卫星组成的“星链”网络,其中1584颗将部署在地球上空550千米处的近地轨道,并从2020年开始工作。该卫星仍在工作。
2D轨道图
3D轨道图
轨道高度分析图
轨道倾角分析图
轨道综合分析图
查看轨道综合分析图
交会数据列表
事件ID 空间交会对象 最接近时刻(TCA) 交会距离 交会风险概率(CRP) 交会风险指数(CRI) 操作
CDM_260913-154406-005706-871021
2026-09-13T
15:44:47+0000
1.073 km
极远距离
9.594905E-6 低风险 0.55
CDM_260913-211306-005706-871022
2026-09-13T
21:13:04+0000
1.076 km
极远距离
9.477427E-6 低风险 0.55
CDM_260913-141106-005706-871023
2026-09-13T
14:11:00+0000
1.835 km
极远距离
1.759487E-6 低风险 0.4
CDM_260913-224606-005706-871021
2026-09-13T
22:46:51+0000
1.950 km
极远距离
1.507292E-6 低风险 0.39
与全量物体交会距离演化趋势
与全量物体交会风险概率演化趋势